Wind_Speed
5 5 5 4 4 4 4 4 4 4 4 4 4 5 5 6 5 5 5 5 5 6 6 6 7 6 7 7 7 7 8 9 9 10 10 10 11 11 11 11 11 11 11
6 4 4 4 4 5 5 5 4 4 5 5 5 5 5 5 6 6 6 6 6 6 6 7 7 8 8 8 8 8 9 9 10 10 11 11 11 11 12 12 11 11 12
7 6 5 5 5 5 5 6 6 5 5 5 5 5 5 6 7 7 7 7 7 8 8 8 8 8 8 8 8 8 9 10 11 11 12 12 12 12 13 13 12 12 12
7 7 6 6 6 6 5 6 7 7 6 6 6 6 6 7 7 7 8 8 8 8 9 9 9 10 10 10 9 9 9 10 11 12 13 13 13 13 14 14 14 14 14
8 7 7 7 7 8 7 7 7 7 7 7 7 7 7 7 8 8 8 9 9 10 10 10 10 11 11 11 10 11 11 12 12 13 13 14 14 15 15 15 15 15 15
9 8 8 8 9 9 9 8 8 8 8 8 8 7 8 8 8 8 9 9 9 10 10 11 11 11 11 12 12 12 12 13 14 13 13 14 14 15 15 15 16 16 16
9 9 9 9 10 10 10 9 9 8 8 9 9 9 9 8 9 9 9 9 10 11 11 11 12 12 12 13 13 13 13 14 14 14 14 14 14 15 14 15 16 16 17
10 10 10 10 10 11 11 11 10 9 9 10 10 11 11 11 10 10 10 11 11 11 12 12 12 13 13 13 14 14 14 14 14 15 15 14 15 15 15 16 16 17 18
11 11 11 11 12 12 12 12 11 11 11 11 11 12 12 11 11 11 12 12 12 13 13 13 13 13 13 14 14 15 15 15 15 16 16 16 16 16 17 17 18 18 18
12 12 12 12 12 12 13 13 13 12 12 12 12 13 12 13 12 12 13 13 13 13 13 14 14 14 14 14 15 15 15 15 15 16 16 17 17 17 17 18 19 19 20
13 13 13 12 12 13 13 13 13 13 13 13 13 14 14 14 14 14 13 14 14 14 14 14 14 15 15 15 16 16 16 15 15 16 17 18 18 18 18 18 19 19 20
15 14 14 14 14 13 13 14 14 14 14 14 14 15 15 15 15 15 15 15 15 15 15 15 15 15 16 16 16 17 17 16 16 17 17 18 17 18 18 19 20 19 19
17 16 15 15 15 15 15 15 15 15 15 15 15 16 16 16 16 15 16 16 16 17 17 17 17 17 17 17 18 18 18 18 17 18 18 19 19 19 20 20 19 20 20
18 17 17 17 16 16 16 16 17 17 16 16 17 17 16 16 16 16 16 17 17 18 18 18 19 19 19 19 19 19 19 20 20 20 20 20 20 20 21 21 21 21 21
19 18 18 18 18 19 18 18 18 18 18 18 18 18 18 18 18 18 18 18 19 19 19 20 20 20 20 20 20 20 20 21 21 21 21 21 21 21 21 21 22 22 22
20 19 19 19 20 20 19 19 19 19 19 19 19 19 19 19 19 20 20 20 20 20 21 22 22 22 22 22 22 22 22 22 23 23 23 22 22 22 22 22 22 22 22
20 19 19 20 20 21 22 22 22 21 21 21 20 21 21 21 21 21 21 22 22 21 21 22 22 23 24 24 24 23 24 24 24 24 24 24 23 23 23 23 23 23 23
21 20 20 21 21 22 22 23 23 23 23 23 23 23 23 22 23 23 23 23 22 22 22 21 22 23 24 24 24 24 25 25 25 25 25 25 24 24 24 24 24 25 25
21 21 22 22 23 23 23 24 24 24 24 24 24 25 24 23 23 23 23 23 23 22 22 22 22 23 24 24 25 25 25 25 25 25 25 26 25 25 25 25 25 26 26
23 23 23 24 24 25 25 25 25 26 25 25 25 25 25 25 24 24 24 24 24 24 23 23 23 24 24 25 26 26 26 26 26 26 26 26 26 26 26 26 26 26 26
25 25 24 25 25 25 25 26 26 26 27 27 26 26 26 26 26 25 25 24 24 25 25 25 25 25 25 26 26 26 27 27 26 27 26 26 27 27 27 27 27 27 27
25 25 25 25 25 26 26 26 26 27 26 26 26 27 27 27 27 26 26 26 25 25 25 26 26 26 26 26 27 27 26 26 26 27 27 26 26 26 27 27 27 27 27
26 27 27 26 26 26 27 26 26 27 26 25 26 26 27 27 27 27 27 27 27 26 26 26 26 26 26 26 27 27 27 26 26 26 27 27 27 27 27 27 28 28 28
26 27 27 27 27 27 27 27 26 26 26 26 26 27 27 27 28 28 28 28 28 27 26 26 25 25 26 26 27 27 27 27 27 27 27 27 27 28 28 29 28 28 29
26 26 27 27 27 27 27 27 28 27 27 27 27 27 27 28 28 29 28 28 28 27 27 27 26 25 26 26 26 27 27 27 28 28 28 28 28 28 28 28 28 28 29
27 27 27 27 28 27 28 28 28 28 28 28 27 28 28 28 29 29 29 28 28 27 27 27 27 26 26 27 27 27 27 27 27 27 28 28 28 28 28 28 29 29 28
Wind_Direction
310 314 309 305 294 285 277 278 275 267 271 274 267 267 268 275 276 278 279 269 254 260 269 254 251 251 254 254 253 257 250 253 251 249 250 250 251 251 252 253 251 252 250
303 299 296 296 287 276 270 269 270 265 271 273 272 275 270 273 270 266 277 278 265 263 265 262 261 262 256 257 258 259 261 256 255 256 257 254 251 253 254 252 251 252 253
298 289 280 282 282 280 270 267 268 267 271 276 275 278 276 276 272 264 267 270 271 269 268 266 267 269 263 259 257 259 262 257 257 256 253 251 252 254 255 252 252 252 253
299 288 280 281 275 272 271 265 263 261 264 272 276 278 276 275 273 267 265 267 268 265 264 265 266 267 268 265 263 264 265 262 259 256 254 251 253 256 257 254 253 254 252
295 290 282 281 274 267 265 262 262 264 268 270 275 276 275 276 275 272 269 268 269 267 263 264 266 265 267 271 272 269 268 267 265 262 258 255 254 257 256 254 251 252 253
291 290 285 277 271 264 263 262 263 267 272 270 271 275 277 276 273 272 272 271 269 269 268 266 266 265 264 269 271 271 274 271 268 266 263 259 259 261 259 256 255 255 255
294 290 285 276 270 264 261 263 265 270 277 275 272 272 275 277 277 274 274 272 270 268 269 269 268 268 268 268 269 270 270 270 271 270 266 263 261 262 263 257 257 258 259
295 293 287 279 272 264 260 261 263 269 275 278 274 272 275 277 278 279 278 275 274 273 272 271 270 269 269 269 270 271 271 270 269 270 267 263 261 262 263 261 259 259 260
293 291 286 276 270 261 258 260 262 267 273 277 276 274 273 275 277 278 278 279 277 274 274 275 274 273 274 275 271 273 273 270 266 267 266 263 262 263 262 263 262 263 263
292 289 286 278 269 261 258 260 264 267 272 277 275 274 271 271 273 275 276 276 277 275 275 275 275 274 275 275 274 275 277 271 270 266 265 265 265 265 264 263 264 265 267
287 285 280 276 270 262 259 261 265 268 271 274 275 275 275 272 272 271 272 275 277 277 276 274 273 272 272 275 275 276 278 276 273 269 267 268 267 265 264 263 264 267 268
284 282 280 275 271 266 264 264 268 272 272 273 274 275 275 274 273 272 272 273 276 277 277 273 272 272 272 275 276 277 277 276 275 270 270 270 269 268 266 264 263 266 266
280 279 277 276 273 269 268 267 271 276 276 275 276 277 276 275 275 275 275 274 275 276 277 274 273 273 273 273 274 275 274 274 274 275 272 271 270 270 269 266 265 267 266
279 276 274 274 273 270 270 270 271 272 273 272 273 276 277 274 274 276 276 275 273 274 274 273 272 272 272 272 274 275 275 274 274 276 277 273 272 271 270 267 267 267 267
276 274 272 272 271 269 269 269 270 272 272 272 273 275 276 275 273 273 274 275 274 273 273 273 272 270 270 271 273 274 277 277 276 277 279 277 275 275 273 270 268 268 267
273 271 270 270 271 270 269 270 271 273 272 271 271 273 275 276 275 274 273 274 275 276 273 273 271 268 269 271 272 273 274 276 276 278 279 278 279 278 277 276 272 270 268
274 270 269 269 271 271 269 269 270 272 273 272 272 272 273 275 276 277 276 276 275 275 275 273 272 268 268 270 271 273 274 275 276 277 277 278 278 277 276 277 275 273 272
276 274 271 270 272 273 271 270 270 271 272 272 272 272 272 273 275 277 278 278 277 276 275 274 273 271 269 269 271 273 275 277 276 276 277 277 276 276 277 276 275 275 274
278 276 274 272 272 274 274 273 272 271 271 271 272 271 271 272 274 276 277 276 276 277 275 276 275 273 272 271 273 273 275 277 278 277 276 275 274 274 275 275 274 274 273
278 277 277 276 275 274 274 274 274 272 271 270 271 271 271 272 273 274 275 275 276 276 277 277 277 275 273 273 274 274 274 275 275 275 275 274 272 272 274 274 274 273 274
278 278 277 278 276 274 274 272 272 273 270 269 269 270 271 272 272 273 275 276 277 277 277 277 277 277 276 275 274 273 273 274 275 275 275 275 274 272 272 272 274 274 274
277 276 276 277 277 275 274 270 269 271 270 268 268 269 270 270 271 272 274 275 277 278 278 277 277 276 277 277 275 273 273 274 274 274 276 276 275 274 272 271 272 273 274
276 276 275 275 276 276 274 271 270 271 270 269 268 268 269 269 270 273 274 274 275 277 279 279 278 277 276 277 276 275 274 273 274 275 277 277 276 274 273 272 272 273 275
277 276 275 275 275 276 274 272 272 271 271 271 270 269 269 269 270 272 273 274 274 277 279 280 279 279 278 275 275 274 273 273 274 276 277 277 275 274 274 274 274 274 274
277 276 275 275 275 275 274 272 272 272 272 272 272 271 269 270 271 272 272 273 273 275 277 278 277 277 278 277 274 275 275 274 275 277 277 276 275 274 273 273 274 274 274
276 276 276 277 276 275 274 272 272 272 272 271 272 271 271 271 272 272 271 272 273 274 276 276 276 277 277 277 277 277 276 277 279 278 277 276 275 273 273 274 274 275 274
Height
5861 5861 5860 5860 5859 5859 5860 5860 5860 5861 5861 5861 5861 5862 5862 5862 5862 5862 5862 5863 5863 5863 5863 5863 5864 5865 5865 5866 5866 5867 5867 5868 5868 5869 5869 5870 5870 5870 5871 5871 5872 5872 5873
5860 5860 5859 5859 5859 5859 5859 5859 5860 5860 5860 5861 5861 5860 5861 5861 5861 5860 5861 5861 5862 5862 5862 5863 5863 5863 5863 5864 5864 5865 5865 5866 5866 5866 5867 5867 5867 5868 5868 5869 5869 5869 5870
5859 5858 5858 5858 5857 5857 5857 5858 5858 5859 5859 5859 5859 5859 5859 5859 5859 5859 5859 5859 5860 5860 5861 5861 5861 5862 5862 5862 5862 5862 5863 5863 5863 5864 5864 5864 5865 5865 5865 5866 5866 5866 5867
5857 5857 5856 5856 5856 5856 5856 5857 5857 5858 5858 5858 5858 5858 5858 5858 5858 5858 5858 5858 5858 5858 5859 5859 5860 5860 5860 5860 5860 5860 5860 5861 5861 5861 5861 5861 5862 5862 5862 5862 5863 5863 5864
5855 5855 5854 5854 5854 5854 5855 5855 5855 5856 5856 5856 5856 5856 5856 5856 5856 5856 5856 5856 5856 5856 5857 5857 5857 5857 5858 5858 5858 5858 5858 5858 5858 5858 5858 5858 5858 5858 5859 5859 5859 5860 5860
5853 5853 5852 5852 5852 5852 5853 5853 5853 5854 5854 5854 5854 5854 5854 5854 5854 5854 5854 5854 5854 5854 5854 5854 5855 5855 5855 5855 5855 5855 5855 5854 5854 5854 5854 5855 5855 5855 5855 5855 5855 5856 5856
5851 5850 5850 5850 5850 5850 5851 5851 5851 5852 5852 5852 5852 5853 5853 5852 5852 5852 5852 5852 5852 5852 5852 5852 5852 5852 5852 5852 5852 5852 5852 5851 5851 5850 5851 5851 5851 5851 5851 5851 5852 5852 5852
5849 5848 5848 5848 5848 5848 5848 5849 5849 5849 5850 5850 5850 5850 5850 5851 5850 5850 5850 5849 5849 5849 5849 5849 5848 5849 5849 5849 5848 5848 5848 5847 5847 5847 5847 5847 5847 5847 5847 5848 5848 5848 5848
5847 5846 5845 5845 5845 5845 5846 5846 5846 5847 5847 5847 5847 5847 5848 5847 5847 5847 5847 5846 5846 5846 5846 5845 5845 5845 5845 5845 5844 5844 5844 5843 5843 5843 5843 5843 5843 5843 5843 5844 5844 5844 5844
5844 5844 5843 5842 5842 5842 5843 5843 5843 5844 5844 5844 5844 5844 5844 5844 5844 5844 5844 5843 5843 5843 5842 5842 5842 5842 5841 5841 5841 5840 5840 5839 5839 5838 5838 5838 5839 5839 5838 5839 5839 5839 5839
5841 5841 5840 5839 5839 5839 5840 5840 5840 5841 5841 5841 5841 5840 5840 5840 5840 5840 5840 5840 5839 5839 5839 5839 5838 5838 5838 5837 5837 5836 5836 5835 5835 5834 5834 5834 5834 5834 5834 5834 5834 5834 5834
5838 5838 5837 5836 5836 5836 5836 5837 5837 5837 5837 5837 5837 5836 5836 5836 5836 5836 5836 5836 5835 5835 5835 5834 5834 5834 5834 5833 5833 5832 5832 5831 5830 5830 5830 5829 5829 5829 5829 5829 5829 5829 5829
5834 5834 5833 5833 5833 5833 5833 5833 5833 5833 5833 5833 5833 5833 5832 5832 5831 5831 5831 5831 5831 5831 5830 5830 5830 5829 5829 5829 5828 5828 5827 5827 5826 5826 5825 5824 5824 5824 5823 5823 5823 5823 5823
5830 5829 5829 5829 5829 5828 5829 5829 5828 5829 5829 5829 5829 5828 5828 5828 5827 5827 5826 5826 5826 5826 5826 5825 5825 5824 5824 5824 5824 5823 5823 5822 5821 5821 5820 5819 5819 5818 5818 5818 5817 5817 5817
5825 5825 5824 5824 5824 5824 5824 5824 5824 5824 5824 5823 5823 5823 5823 5823 5822 5822 5821 5821 5821 5820 5821 5820 5819 5819 5819 5819 5818 5818 5817 5817 5816 5815 5815 5814 5813 5812 5812 5811 5811 5811 5811
5819 5819 5819 5819 5819 5819 5819 5819 5819 5819 5819 5818 5818 5818 5818 5817 5817 5816 5816 5816 5815 5815 5815 5815 5814 5813 5813 5813 5812 5812 5812 5811 5810 5810 5809 5808 5807 5807 5806 5805 5805 5805 5805
5813 5813 5813 5813 5813 5813 5813 5813 5813 5813 5813 5812 5812 5812 5812 5811 5811 5810 5810 5809 5809 5809 5808 5808 5807 5807 5806 5806 5806 5806 5805 5805 5804 5803 5803 5802 5801 5801 5800 5799 5799 5799 5798
5807 5807 5807 5807 5807 5807 5807 5806 5807 5806 5806 5806 5806 5806 5806 5805 5805 5804 5804 5803 5803 5802 5802 5801 5801 5800 5800 5799 5799 5799 5799 5798 5798 5797 5796 5795 5795 5794 5794 5793 5793 5792 5792
5801 5801 5801 5800 5800 5800 5799 5799 5799 5799 5799 5799 5799 5799 5799 5798 5798 5798 5797 5797 5796 5796 5795 5795 5794 5793 5793 5792 5792 5792 5792 5791 5790 5790 5789 5788 5788 5787 5787 5786 5786 5785 5785
5794 5794 5794 5793 5792 5792 5792 5792 5792 5791 5791 5791 5791 5791 5791 5791 5791 5791 5790 5790 5789 5789 5788 5788 5787 5786 5786 5785 5785 5785 5785 5784 5783 5782 5781 5781 5781 5780 5779 5779 5778 5778 5777
5787 5787 5786 5785 5784 5784 5784 5784 5784 5784 5783 5783 5783 5783 5783 5784 5783 5783 5783 5782 5782 5781 5781 5780 5780 5779 5778 5778 5778 5777 5777 5776 5775 5774 5774 5773 5773 5772 5772 5771 5771 5770 5770
5780 5779 5778 5778 5777 5776 5776 5776 5775 5775 5775 5775 5775 5775 5775 5775 5775 5775 5775 5774 5774 5774 5773 5773 5772 5771 5771 5770 5770 5769 5769 5768 5768 5767 5766 5766 5765 5764 5764 5764 5763 5762 5762
5772 5771 5770 5769 5769 5768 5768 5768 5767 5767 5767 5767 5767 5767 5767 5767 5767 5767 5767 5766 5766 5765 5765 5765 5764 5763 5762 5762 5761 5761 5760 5760 5760 5759 5758 5758 5757 5756 5756 5755 5755 5754 5753
5764 5764 5762 5762 5761 5760 5760 5760 5759 5759 5759 5759 5759 5759 5759 5759 5759 5759 5758 5758 5758 5757 5757 5757 5756 5755 5754 5754 5753 5752 5752 5752 5751 5750 5749 5749 5748 5748 5747 5746 5746 5746 5745
5756 5756 5755 5754 5753 5752 5752 5751 5751 5751 5751 5751 5751 5751 5751 5751 5751 5750 5750 5750 5750 5749 5749 5748 5748 5747 5746 5746 5745 5744 5744 5743 5743 5742 5741 5740 5740 5739 5738 5738 5737 5736 5736
5748 5748 5747 5746 5745 5744 5743 5743 5743 5743 5743 5742 5742 5742 5742 5742 5742 5741 5741 5741 5741 5741 5740 5740 5740 5739 5738 5738 5737 5736 5735 5735 5734 5734 5732 5731 5730 5730 5730 5729 5728 5727 5727